Regional Weather Roundup
Issued by NWS Mobile, AL

Home | Current Version | Previous Version | Text Only | Print | Product List | Glossary On
Versions: 1 2 3 4 5 6 7 8 9 10 11 12 13 14 15 16 17 18 19 20 21 22 23 24 25 26 27 28 29 30 31 32 33 34 35 36 37 38 39 40 41 42 43 44 45 46 47 48 49 50
000
ASUS44 KMOB 191210
RWRMOB
REGIONAL WEATHER ROUNDUP
NATIONAL WEATHER SERVICE MOBILE AL
700 AM CDT FRI SEP 19 2014

NOTE: "FAIR" INDICATES FEW OR NO CLOUDS BELOW 12,000 FEET WITH NO
      SIGNIFICANT WEATHER AND/OR OBSTRUCTIONS TO VISIBILITY.

  * THESE STATIONS ARE PART OF THE UNIVERSITY OF SOUTH ALABAMA
    MESONET AND ARE NOT UNDER NWS OR FAA QUALITY CONTROL.

ALZ061>064-191300-
COASTAL ALABAMA

CITY           SKY/WX    TMP DP  RH WIND       PRES   REMARKS
MOBILE REG APT CLOUDY    71  71 100 CALM      29.97R
6HR MIN TEMP:  70; 6HR MAX TEMP:  71; 6HR PCP:  0.01;

BROOKLEY FIELD LGT RAIN  73  71  93 SW5       29.97R
6HR MIN TEMP:  73; 6HR MAX TEMP:  74; 6HR PCP:  0.01;

USA CAMPUS*      N/A     70  70 100 CALM      29.97R
DOG RIVER*     NOT AVBL


CITY           SKY/WX    TMP DP  RH WIND       PRES   REMARKS
MOUNT VERNON*    N/A     66  66 100 CALM      29.96R
SARALAND*      NOT AVBL
BAY MINETTE*   NOT AVBL
LOXLEY*          N/A    N/A N/A N/A CALM      29.96R
ROBERTSDALE*     N/A    N/A N/A N/A CALM      29.96R
FAIRHOPE*        N/A     72  70  94 SW2       29.95R
ELBERTA*         N/A     72  57  60 N3        29.94S
FOLEY*         NOT AVBL
GRAND BAY*       N/A     72  70  94 CALM      29.94R
DAUPHIN ISLND* NOT AVBL
BON SCOUR NWR* NOT AVBL
GULF SHORES    LGT RAIN  71  70  96 CALM      29.95R

$$

ALZ051>060-191300-
INTERIOR SOUTHWEST AND SOUTH CENTRAL ALABAMA

CITY           SKY/WX    TMP DP  RH WIND       PRES   REMARKS
GREENVILLE     MOCLDY    66  61  84 N3        29.99R
6HR MIN TEMP:  65; 6HR MAX TEMP:  70;

EVERGREEN      MOCLDY    68  65  90 CALM      29.98R
6HR MIN TEMP:  68; 6HR MAX TEMP:  73;

CASTLEBERRY*   NOT AVBL
ATMORE*          N/A     72  68  88 CALM      29.98R
DIXIE*         NOT AVBL
ANDALUSIA/OPP  CLOUDY    73  66  78 SE3       29.98R
6HR MIN TEMP:  71; 6HR MAX TEMP:  75;

ANDALUSIA*     NOT AVBL
FLORALA APT    CLOUDY    71  65  81 E5        30.00R
6HR MIN TEMP:  69; 6HR MAX TEMP:  75;

FLORALA*         N/A     68  64  88 E2        29.96R

$$

FLZ001>006-191300-
WESTERN FLORIDA PANHANDLE

CITY           SKY/WX    TMP DP  RH WIND       PRES   REMARKS
PENSACOLA      CLOUDY    72  71  97 CALM      29.94R
6HR MIN TEMP:  72; 6HR MAX TEMP:  74; 6HR PCP:  0.01;

NAS PENSACOLA  CLOUDY    73  69  87 NW3       29.94R
6HR MIN TEMP:  72; 6HR MAX TEMP:  77; 6HR PCP:  0.01;

MILTON         CLOUDY    72  65  78 NE7       29.96R
6HR MIN TEMP:  72; 6HR MAX TEMP:  75;

WHTNG S FIELD  CLOUDY    74  67  78 E5        29.96R
6HR MIN TEMP:  74; 6HR MAX TEMP:  78;



CITY           SKY/WX    TMP DP  RH WIND       PRES   REMARKS
WALNUT HILL*   NOT AVBL
JAY*           NOT AVBL
DUKE FIELD     CLOUDY    72  71  95 NE5       29.96R
CRESTVIEW      CLOUDY    70  66  87 CALM      29.98R
6HR MIN TEMP:  70; 6HR MAX TEMP:  74;

VALPARAISO     LGT RAIN  77  69  78 NE7       29.94R
6HR MIN TEMP:  76; 6HR MAX TEMP:  78; 6HR PCP: TRACE;

DESTIN         LGT RAIN  72  69  90 NE3       29.94R
6HR MIN TEMP:  72; 6HR MAX TEMP:  81; 6HR PCP:  0.19;


$$

MSZ076-079-191300-
INTERIOR SOUTHEAST MISSISSIPPI

CITY           SKY/WX    TMP DP  RH WIND       PRES   REMARKS
LEAKESVILLE*   NOT AVBL
AGRICOLA*      NOT AVBL

$$

MARINE OBSERVATIONS

STATION/POSITION TIME  TEMP    WIND        PRES    WAVE
                       AIR SEA DIR/SP/G            HT/PER
                 (UTC) (F)     (DEG/KT/KT) (MB)    (FT/S)
PASCAGOULA       1200   74     110/  5/  6 1013.8S
PETIT BOIS ISLND 1200   76     130/ 11/ 15 1014.2S
GRAND BAY        1100   74     130/ 12     1015.0S
KATRINA CUT      1100   74     150/  4     1014.6S
CEDAR POINT      1100   73     190/  5     1014.2S
E DAUPHIN ISLAND 1054   75     140/  6/  7 1013.9R
MIDDLE BAY LIGHT 1100   76     160/ 12     1013.5R
USCG MOBILE BAY  1200      86              1013.4R
STATE DOCKS      1200   74 86              1014.2R
MEAHER PARK      1100   74     100/  3     1014.2R
WEEKS BAY        1100   72                   N/A
12 S ORANGE BCH  1200   76 85  180/ 12/ 16 1014.0R   1/ 3
PENSACOLA BAY    1200   76 87  360/  4/  5 1014.1S
64 S DAUPHIN ISL 1056   77 84  100/ 12/ 14 1013.8    2/ 4
67 S FORT MORGAN 1100   73     VRB 10      1013.2R

$$

SELECTED LOCATIONS ACROSS THE REGION

CITY           SKY/WX    TMP DP  RH WIND       PRES   REMARKS
NEW ORLEANS    CLOUDY    76  68  76 E6        29.93R
GULFPORT       CLOUDY    72  70  93 NE6       29.94R
PASCAGOULA AP  LGT RAIN  70  69  97 CALM      29.95S
PASCAGOULA*      N/A     72  70  94 NE2       29.94S
HATTIESBURG    PTCLDY    70  67  90 CALM      29.97R
LAUREL         PTCLDY   N/A N/A N/A N3        29.97S
MERIDIAN       CLEAR     69  67  93 NE8       29.99R
JACKSON        PTCLDY    67  65  93 CALM      29.97R
MONTGOMERY     CLEAR     68  64  87 CALM      30.01R
TROY           PTCLDY    66  63  90 CALM      30.01R
KINSTON*       NOT AVBL
GENEVA*          N/A     70  66  88 E3        30.00R
ASHFORD*       NOT AVBL
DOTHAN         CLOUDY    69  67  93 CALM      30.02R
PANAMA CITY    LGT RAIN  73  69  87 CALM      29.95R

$$




USA.gov is the U.S. government's official web portal to all federal, state and local government web resources and services.